CDT,Max TemperatureF,Mean TemperatureF,Min TemperatureF,Max Dew PointF,MeanDew PointF,Min DewpointF,Max Humidity, Mean Humidity, Min Humidity, Max Sea Level PressureIn, Mean Sea Level PressureIn, Min Sea Level PressureIn, Max VisibilityMiles, Mean VisibilityMiles, Min VisibilityMiles, Max Wind SpeedMPH, Mean Wind SpeedMPH, Max Gust SpeedMPH,PrecipitationIn, CloudCover, Events, WindDirDegrees
2013-5-1,59,48,34,43,37,33,96,81,44,30.42,30.21,29.90,10,7,1,16,10,28,0.81,8,Rain-Snow-Thunderstorm,1
2013-5-2,50,42,33,34,31,27,97,69,47,30.54,30.47,30.39,10,9,1,17,8,26,0.38,5,Rain-Snow,348
2013-5-3,47,40,33,33,30,27,82,65,51,30.39,30.20,30.04,10,10,10,16,7,30,0.00,4,,348
2013-5-4,44,40,36,42,37,32,94,89,75,30.14,30.05,29.98,10,8,2,16,10,28,0.06,8,Rain,348
2013-5-5,55,48,42,49,44,41,95,88,78,30.18,30.14,30.11,10,8,2,13,7,20,0.01,8,Rain,340
2013-5-6,67,57,48,52,49,47,95,81,57,30.16,30.11,30.03,10,8,4,12,4,18,0.00,5,,345
2013-5-7,74,58,44,59,51,45,99,75,44,30.09,30.02,29.95,10,7,0,12,2,20,0.17,3,Fog-Rain,156
2013-5-8,68,62,56,59,57,54,97,82,68,29.97,29.94,29.90,10,10,4,9,2,,0.06,7,Rain-Thunderstorm,141
2013-5-9,68,62,57,59,57,55,97,87,65,30.00,29.93,29.87,10,8,2,15,5,24,1.38,7,Rain,339
2013-5-10,68,59,50,54,48,44,90,70,41,30.10,30.05,30.01,10,10,10,12,6,18,0.00,5,,343
2013-5-11,60,52,43,48,31,23,94,45,24,30.26,30.20,30.03,10,10,7,22,7,33,0.00,0,,331
2013-5-12,65,50,34,35,30,24,89,49,23,30.30,30.21,30.11,10,10,1,5,0,,0.00,1,,142
2013-5-13,83,64,46,53,43,33,77,48,23,30.12,29.99,29.85,10,10,10,16,4,24,0.00,0,,171
2013-5-14,99,78,56,62,53,44,94,48,15,29.85,29.73,29.63,10,10,10,16,4,26,0.03,0,,198
2013-5-15,83,74,65,58,43,38,62,33,21,29.93,29.85,29.77,10,10,10,12,4,22,0.00,0,,74
2013-5-16,84,72,59,64,56,46,76,56,41,29.87,29.82,29.75,10,10,10,15,3,17,0.00,2,,164
2013-5-17,85,74,64,63,60,58,85,62,39,29.90,29.85,29.81,10,10,10,13,4,18,0.00,1,,149
2013-5-18,84,72,61,66,63,59,95,68,49,29.90,29.82,29.69,10,10,5,22,7,28,0.00,2,Rain-Thunderstorm,136
2013-5-19,77,68,61,67,62,54,98,84,65,29.79,29.64,29.51,10,9,2,22,6,32,0.52,4,Rain-Thunderstorm,142
2013-5-20,76,66,55,58,55,50,96,67,42,29.66,29.59,29.52,10,10,10,15,7,24,0.00,3,Rain,224
2013-5-21,62,59,55,57,50,45,86,71,56,29.73,29.68,29.61,10,10,7,18,10,25,0.00,6,,270
2013-5-22,60,56,52,53,50,48,91,79,66,29.98,29.82,29.73,10,10,2,17,12,26,0.01,8,Rain,306
2013-5-23,73,62,52,51,47,41,90,63,32,30.24,30.14,29.99,10,10,7,12,7,22,0.00,4,,23
2013-5-24,75,62,50,50,47,43,84,57,35,30.30,30.20,30.03,10,10,10,22,7,30,0.00,2,Thunderstorm,135
2013-5-25,80,70,59,68,60,47,97,75,50,30.11,30.03,29.95,10,10,4,17,9,23,0.31,7,Rain-Thunderstorm,119
2013-5-26,85,74,63,70,65,61,94,82,59,30.01,29.92,29.83,10,10,10,14,6,22,0.01,6,,112
2013-5-27,77,68,61,66,62,59,96,81,62,29.92,29.77,29.61,10,10,2,30,9,41,1.24,6,Rain-Thunderstorm,118
2013-5-28,81,72,62,66,63,53,98,77,38,29.73,29.69,29.63,10,9,0,12,2,,0.00,3,Fog-Thunderstorm,106
2013-5-29,75,69,63,70,65,61,94,85,74,29.73,29.66,29.55,10,10,2,21,9,36,0.59,6,Rain-Thunderstorm,135
2013-5-30,75,67,58,63,60,55,97,81,62,29.64,29.57,29.50,10,10,2,16,9,24,0.19,4,Rain-Thunderstorm,160
2013-5-31,79,67,55,56,51,45,94,56,31,29.73,29.66,29.62,10,10,10,16,6,23,0.12,0,,214